軌道要素
Epoch 2018 Dec. 28.0 TT = JDT 2458480.5
T 2019 Jan. 3.05221 TT Williams
q 2.4178667 (2000.0) P Q
z -0.0009509 Peri. 87.93487 +0.03690571 +0.90743932
+/-0.0000076 Node 154.89341 -0.24195409 -0.39826850
e 1.0022991 Incl. 99.43861 +0.96958557 -0.13392566
From 310 observations 2019 June 30-Oct. 25, mean residual 0".5.
|